Location: Honey Creek State Natural Area
(29.8555°N, 98.4942°W)
Time: 22:32:21
(UTC-06:00)

Amateur Radio Satellites - All Passes

Search period start: 21 January 2018 22:02
Search period end: 22 January 2018 22:02
Location: Honey Creek State Natural Area, 29.8555°N, 98.4942°W

Satellite Date Start Highest point End Downlink Frequencies (MHz)
Time Altitude Azimuth
AO-85 21 Jan 22:20:41 22:25:20 34° 248° (WSW) 22:30:08 145.980
TIGRISAT 21 Jan 22:32:22 22:37:01 64° 284° (WNW) 22:41:37 435.000
PRISM 21 Jan 22:40:56 22:44:29 28° 98° (E) 22:48:02 437.425
AIST 2D 21 Jan 22:45:18 22:46:20 11° 94° (E) 22:47:21 435.315
UNISAT 6 21 Jan 22:48:13 22:52:33 38° 287° (WNW) 22:56:50 437.425
YUBILEINY 21 Jan 22:51:22 22:59:46 51° 90° (E) 23:08:09 435.215
LO-87 21 Jan 23:04:49 23:08:18 64° 77° (ENE) 23:11:50 145.935 - 145.965
SPROUT 21 Jan 23:12:58 23:13:52 11° 68° (ENE) 23:14:45 437.525
ESTCUBE 1 21 Jan 23:25:43 23:30:15 89° 77° (ENE) 23:34:47 437.505/2401.250
QB50P2 21 Jan 23:28:46 23:31:10 15° 95° (E) 23:33:33 145.880/145.840
O/OREOS (USA 219) 21 Jan 23:38:02 23:41:35 23° 102° (ESE) 23:45:07 437.305
DUCHIFAT 1 21 Jan 23:55:54 23:59:06 20° 96° (E) 00:02:16 145.980
EO-79 21 Jan 23:58:03 00:01:50 30° 98° (E) 00:05:35 145.935-145.965
AIST 2D 22 Jan 00:16:34 00:19:28 25° 286° (WNW) 00:22:21 435.315
PRISM 22 Jan 00:17:00 00:19:27 16° 290° (WNW) 00:21:55 437.425
POLYITAN 1 22 Jan 00:32:55 00:37:13 88° 95° (E) 00:41:29 437.675
SPROUT 22 Jan 00:45:11 00:49:15 46° 260° (W) 00:53:21 437.525
NANOSAT C BR1 22 Jan 00:47:29 00:51:44 69° 283° (WNW) 00:55:56 145.865
YUBILEINY 22 Jan 00:49:30 00:56:43 28° 285° (WNW) 01:03:58 435.215
BUGSAT 1 22 Jan 00:52:52 00:55:59 20° 96° (E) 00:59:04 437.445
VELOX 1 22 Jan 00:56:45 01:01:07 70° 258° (WSW) 01:05:30 145.980
NO-84 22 Jan 01:00:02 01:02:57 70° 52° (NE) 01:06:02 435.350 FM
QB50P2 22 Jan 01:03:07 01:06:57 33° 287° (WNW) 01:10:46 145.880/145.840
Gurwin Techsat 1B 22 Jan 01:04:18 01:06:20 12° 93° (E) 01:08:23 435.225
Oscar 19 22 Jan 01:07:50 01:11:26 19° 96° (E) 01:15:00 437.125/150
DX 1 22 Jan 01:10:06 01:13:39 25° 71° (ENE) 01:17:10 434.975-435.025
O/OREOS (USA 219) 22 Jan 01:17:13 01:20:49 23° 294° (WNW) 01:24:26 437.305
DUCHIFAT 1 22 Jan 01:31:13 01:34:36 23° 288° (WNW) 01:37:58 145.980
FALCONSAT 3 22 Jan 01:31:22 01:32:28 11° 144° (SE) 01:33:34 435.103
EO-79 22 Jan 01:34:37 01:37:16 16° 290° (WNW) 01:39:55 145.935-145.965
50 SAT 22 Jan 01:43:52 01:46:52 58° 77° (ENE) 01:49:54 437.505
AO-91 22 Jan 02:10:02 02:14:43 68° 283° (WNW) 02:19:49 145.960
BUGSAT 1 22 Jan 02:27:46 02:31:12 24° 288° (WNW) 02:34:38 437.445
UKube-1 22 Jan 02:30:50 02:35:02 53° 259° (W) 02:39:14 .
Gurwin Techsat 1B 22 Jan 02:41:19 02:46:32 59° 286° (WNW) 02:51:44 435.225
ITUPSAT 1 22 Jan 02:42:07 02:45:58 25° 70° (ENE) 02:49:49 437.325
Oscar 19 22 Jan 02:46:04 02:50:46 37° 288° (WNW) 02:55:27 437.125/150
DX 1 22 Jan 02:46:32 02:49:42 20° 263° (W) 02:52:53 434.975-435.025
nSIGHT-1 22 Jan 02:58:21 03:00:30 17° 38° (NE) 03:02:39 .
MOZHAYETS 4 22 Jan 03:00:22 03:04:58 77° 76° (ENE) 03:09:37
FALCONSAT 3 22 Jan 03:07:30 03:11:07 60° 155° (SSE) 03:14:44 435.103
CUBESAT XI-V 22 Jan 03:08:09 03:11:31 20° 70° (ENE) 03:14:53 437.345
ISS 22 Jan 03:16:34 03:18:51 17° 38° (NE) 03:21:08 437.550
BEESAT 22 Jan 03:19:55 03:24:38 70° 76° (ENE) 03:29:23 436.000
AO-7 22 Jan 03:21:38 03:29:21 40° 101° (E) 03:36:59 .
ITAMSAT 1 22 Jan 03:54:44 03:59:38 41° 100° (E) 04:04:31 435.822/435.867
SO-50 22 Jan 04:05:14 04:08:00 16° 109° (ESE) 04:10:47 436.795
ITUPSAT 1 22 Jan 04:19:43 04:23:37 25° 263° (W) 04:27:32 437.325
KKS-1 22 Jan 04:21:56 04:24:40 16° 69° (ENE) 04:27:26 437.445
nSIGHT-1 22 Jan 04:33:52 04:36:41 29° 231° (SW) 04:39:30 .
CUBESAT XI-V 22 Jan 04:44:30 04:48:37 30° 262° (W) 04:52:44 437.345
FALCONSAT 3 22 Jan 04:46:46 04:50:16 41° 349° (N) 04:53:47 435.103
ISS 22 Jan 04:52:26 04:55:20 30° 231° (SW) 04:58:15 437.550
DOVE 4 22 Jan 05:04:17 05:08:42 58° 101° (E) 05:13:22 437.250
AO-7 22 Jan 05:14:27 05:21:53 37° 295° (WNW) 05:29:17 .
ITAMSAT 1 22 Jan 05:35:13 05:38:43 18° 292° (WNW) 05:42:13 435.822/435.867
XW-2D 22 Jan 05:37:45 05:39:33 13° 95° (E) 05:41:22 145.860 - 145.880
CUTE-I 22 Jan 05:39:22 05:41:59 14° 94° (E) 05:44:37 437.470
SO-50 22 Jan 05:44:03 05:48:06 35° 302° (WNW) 05:52:14 436.795
M-CUBED/EXP-1 PRIME 22 Jan 05:54:24 05:57:27 38° 289° (WNW) 06:00:29 437.505
XW-2B 22 Jan 05:54:24 05:57:19 21° 97° (E) 06:00:13 145.730 - 145.750
KKS-1 22 Jan 05:56:58 06:00:54 32° 261° (W) 06:04:53 437.445
STARS 22 Jan 06:08:23 06:12:42 70° 258° (WSW) 06:17:03 437.465
RS-15 22 Jan 06:09:26 06:16:59 19° 100° (E) 06:24:29 29.354- 29.394
LilacSat-2 22 Jan 06:23:44 06:27:28 67° 101° (E) 06:31:12 437.200
XW-2C 22 Jan 06:24:09 06:27:51 61° 100° (E) 06:31:31 145.795 - 145.815
FALCONSAT 3 22 Jan 06:26:23 06:29:45 34° 4° (N) 06:33:08 435.103
STRAND 1 22 Jan 06:37:50 06:42:06 28° 71° (ENE) 06:46:23 437.568
KAITUO 1B 22 Jan 06:54:49 06:58:28 71° 283° (WNW) 07:02:07 145.475/437.950
XW-2F 22 Jan 06:59:13 07:02:45 42° 285° (WNW) 07:06:16 145.980 - 146.000
NUDT-PHONESAT 22 Jan 07:03:12 07:06:46 56° 283° (WNW) 07:10:20 437.300
XW-2D 22 Jan 07:10:32 07:13:42 26° 286° (WNW) 07:16:50 145.860 - 145.880
SEEDS 22 Jan 07:13:19 07:17:02 31° 98° (E) 07:20:43 437.485
CUTE-I 22 Jan 07:17:03 07:22:13 53° 286° (WNW) 07:27:24 437.470
FO-29 22 Jan 07:28:21 07:34:57 45° 73° (ENE) 07:40:50 435.910
CUTE 1.7 + AOD 2 22 Jan 07:28:22 07:32:34 85° 285° (WNW) 07:36:46 437.475
XW-2B 22 Jan 07:28:52 07:31:16 16° 288° (WNW) 07:33:39 145.730 - 145.750
HO-68 22 Jan 07:34:21 07:41:32 84° 105° (ESE) 07:48:42 435.675
CUBEBUG 2 22 Jan 07:55:29 08:00:12 68° 284° (WNW) 08:04:51 437.445
UWE-3 22 Jan 07:57:46 08:02:24 67° 100° (E) 08:06:55 435.000/436.395/437.385
FALCONSAT 3 22 Jan 08:05:26 08:09:06 73° 19° (NNE) 08:12:45 435.103
RS-15 22 Jan 08:15:36 08:27:55 88° 297° (WNW) 08:40:15 29.354- 29.394
STRAND 1 22 Jan 08:17:02 08:21:09 25° 263° (W) 08:25:18 437.568
ZACube-1 22 Jan 08:18:10 08:22:36 55° 100° (E) 08:26:56 437.345
AO-73 22 Jan 08:23:59 08:28:25 56° 100° (E) 08:32:43 145.935
AAUSAT CUBESAT 2 22 Jan 08:25:25 08:29:30 76° 284° (WNW) 08:33:35 437.432
XW-2A 22 Jan 08:33:50 08:37:07 60° 283° (WNW) 08:40:22 145.665 - 145.685
JUGNU 22 Jan 08:42:54 08:46:43 18° 165° (SSE) 08:50:32 437.505
SEEDS 22 Jan 08:50:06 08:52:22 15° 290° (WNW) 08:54:39 437.485
Oscar 11 22 Jan 08:55:28 08:59:48 81° 102° (ESE) 09:04:05 .
YUBILEINY 22 Jan 09:11:04 09:16:21 17° 71° (ENE) 09:21:35 435.215
BEESAT 3 22 Jan 09:11:55 09:15:52 83° 118° (ESE) 09:19:51 437.485
FO-29 22 Jan 09:14:26 09:19:56 24° 262° (W) 09:25:01 435.910
TIGRISAT 22 Jan 09:24:41 09:28:55 51° 75° (ENE) 09:33:17 435.000
HO-68 22 Jan 09:24:52 09:28:19 14° 299° (WNW) 09:31:47 435.675
PCSat 22 Jan 09:38:13 09:43:37 87° 295° (WNW) 09:49:03 145.827
UNISAT 6 22 Jan 09:40:16 09:44:38 90° 104° (ESE) 09:49:10 437.425
FALCONSAT 3 22 Jan 09:44:59 09:47:57 23° 212° (SSW) 09:50:56 435.103
O/OREOS (USA 219) 22 Jan 09:54:05 09:57:03 17° 64° (ENE) 10:00:02 437.305
ZACube-1 22 Jan 09:57:44 09:58:17 10° 293° (WNW) 09:58:49 437.345
BEESAT 2 22 Jan 10:03:43 10:07:41 75° 116° (ESE) 10:11:43 435.950
DELFI C3 22 Jan 10:22:19 10:26:05 48° 284° (WNW) 10:29:53 145.870
JUGNU 22 Jan 10:30:16 10:35:12 28° 174° (S) 10:40:08 437.505
RS-15 22 Jan 10:32:51 10:42:07 24° 317° (NW) 10:51:20 29.354- 29.394
Max Valier Satellite 22 Jan 10:41:39 10:45:06 39° 285° (WNW) 10:48:30 145.860
AIST 2D 22 Jan 10:44:00 10:47:15 35° 75° (ENE) 10:50:29 435.315
EO-79 22 Jan 10:47:01 10:48:03 11° 68° (ENE) 10:49:06 145.935-145.965
AO-85 22 Jan 10:50:15 10:53:17 22° 110° (ESE) 10:56:25 145.980
SRMSAT 22 Jan 10:55:41 10:58:11 13° 161° (SSE) 11:00:41 437.500
EO-88 22 Jan 10:56:30 10:59:53 39° 285° (WNW) 11:03:16 145.990 - 145.960
PRISM 22 Jan 10:58:31 11:02:27 49° 260° (W) 11:06:23 437.425
YUBILEINY 22 Jan 11:05:11 11:13:52 76° 267° (W) 11:22:30 435.215
POLYITAN 1 22 Jan 11:19:36 11:23:13 28° 73° (ENE) 11:26:53 437.675
ESTCUBE 1 22 Jan 11:24:28 11:28:22 29° 98° (E) 11:32:15 437.505/2401.250
O/OREOS (USA 219) 22 Jan 11:32:31 11:36:27 31° 257° (WSW) 11:40:24 437.305
NANOSAT C BR1 22 Jan 11:33:21 11:37:13 36° 74° (ENE) 11:41:06 145.865
QB50P2 22 Jan 11:48:48 11:53:00 81° 77° (ENE) 11:57:15 145.880/145.840
LO-87 22 Jan 12:10:22 12:13:47 40° 285° (WNW) 12:17:10 145.935 - 145.965
DUCHIFAT 1 22 Jan 12:15:42 12:19:51 72° 258° (WSW) 12:24:04 145.980
JUGNU 22 Jan 12:18:43 12:23:44 30° 184° (S) 12:28:46 437.505
EO-79 22 Jan 12:19:18 12:23:19 45° 260° (W) 12:27:24 145.935-145.965
Oscar 19 22 Jan 12:19:31 12:22:36 16° 67° (ENE) 12:25:42 437.125/150
Gurwin Techsat 1B 22 Jan 12:20:23 12:22:10 12° 65° (ENE) 12:23:57 435.225
AO-85 22 Jan 12:30:35 12:33:32 20° 305° (NW) 12:36:37 145.980
SPROUT 22 Jan 12:36:21 12:40:28 43° 99° (E) 12:44:32 437.525
SRMSAT 22 Jan 12:42:03 12:46:48 25° 169° (S) 12:51:33 437.500
VELOX 1 22 Jan 12:52:42 12:56:41 33° 98° (E) 13:00:40 145.980
POLYITAN 1 22 Jan 12:56:15 12:58:57 16° 265° (W) 13:01:40 437.675
ESTCUBE 1 22 Jan 13:01:50 13:04:54 18° 290° (WNW) 13:07:58 437.505/2401.250
AO-91 22 Jan 13:02:41 13:05:49 37° 75° (ENE) 13:09:00 145.960
BUGSAT 1 22 Jan 13:10:19 13:14:21 80° 258° (WSW) 13:18:29 437.445
NANOSAT C BR1 22 Jan 13:11:09 13:12:58 12° 266° (W) 13:14:48 145.865
Gurwin Techsat 1B 22 Jan 13:56:12 14:01:28 67° 258° (WSW) 14:06:46 435.225
Oscar 19 22 Jan 13:56:29 14:01:28 47° 260° (W) 14:06:28 437.125/150
JUGNU 22 Jan 14:07:59 14:12:15 21° 193° (SSW) 14:16:31 437.505
SPROUT 22 Jan 14:14:22 14:15:53 12° 292° (WNW) 14:17:24 437.525
AO-7 22 Jan 14:14:26 14:21:36 33° 64° (ENE) 14:28:49 .
SO-50 22 Jan 14:20:20 14:24:46 39° 59° (ENE) 14:29:13 436.795
UKube-1 22 Jan 14:23:36 14:27:37 37° 99° (E) 14:31:36 .
VELOX 1 22 Jan 14:30:09 14:32:47 16° 291° (WNW) 14:35:26 145.980
SRMSAT 22 Jan 14:30:17 14:35:30 32° 179° (S) 14:40:43 437.500
50 SAT 22 Jan 14:35:08 14:38:13 70° 283° (WNW) 14:41:18 437.505
DX 1 22 Jan 14:39:04 14:43:24 74° 283° (WNW) 14:47:43 434.975-435.025
MOZHAYETS 4 22 Jan 15:01:46 15:05:44 28° 97° (E) 15:09:40
ITAMSAT 1 22 Jan 15:06:59 15:11:36 34° 71° (ENE) 15:16:13 435.822/435.867
RS-15 22 Jan 15:16:26 15:22:32 15° 33° (NNE) 15:28:28 29.354- 29.394
BEESAT 22 Jan 15:26:22 15:30:29 28° 98° (E) 15:34:34 436.000
UKube-1 22 Jan 16:01:05 16:03:14 14° 292° (WNW) 16:05:23 .
SO-50 22 Jan 16:01:48 16:04:54 17° 251° (WSW) 16:07:59 436.795
DOVE 4 22 Jan 16:04:39 16:08:17 27° 73° (ENE) 16:11:49 437.250
AO-7 22 Jan 16:06:09 16:14:00 45° 258° (WSW) 16:21:56 .
NO-84 22 Jan 16:09:25 16:12:43 68° 309° (NW) 16:15:47 435.350 FM
SRMSAT 22 Jan 16:19:19 16:24:14 27° 189° (S) 16:29:10 437.500
ITUPSAT 1 22 Jan 16:25:06 16:29:50 61° 286° (WNW) 16:34:33 437.325
M-CUBED/EXP-1 PRIME 22 Jan 16:32:50 16:37:16 78° 71° (ENE) 16:41:25 437.505
MOZHAYETS 4 22 Jan 16:39:16 16:42:39 20° 290° (WNW) 16:46:00
CUBESAT XI-V 22 Jan 16:46:15 16:50:51 77° 284° (WNW) 16:55:25 437.345
ITAMSAT 1 22 Jan 16:47:14 16:51:02 21° 264° (W) 16:54:51 435.822/435.867
CUTE-I 22 Jan 16:56:01 16:58:28 13° 66° (ENE) 17:00:55 437.470
LilacSat-2 22 Jan 17:01:00 17:03:06 14° 71° (ENE) 17:05:11 437.200
XW-2C 22 Jan 17:01:05 17:02:50 13° 70° (ENE) 17:04:34 145.795 - 145.815
BEESAT 22 Jan 17:04:22 17:08:01 22° 290° (WNW) 17:11:39 436.000
RS-15 22 Jan 17:26:34 17:38:01 61° 59° (ENE) 17:48:51 29.354- 29.394
KAITUO 1B 22 Jan 17:29:10 17:31:57 20° 72° (ENE) 17:34:45 145.475/437.950
XW-2F 22 Jan 17:33:40 17:37:04 32° 74° (ENE) 17:40:28 145.980 - 146.000
NUDT-PHONESAT 22 Jan 17:36:17 17:39:15 23° 73° (ENE) 17:42:14 437.300
DOVE 4 22 Jan 17:43:05 17:45:55 17° 264° (W) 17:48:41 437.250
XW-2D 22 Jan 17:44:43 17:48:27 54° 76° (ENE) 17:52:12 145.860 - 145.880
KKS-1 22 Jan 17:53:02 17:57:29 74° 102° (ESE) 18:01:56 437.445
HO-68 22 Jan 17:56:50 18:03:06 34° 67° (ENE) 18:09:22 435.675
SEEDS 22 Jan 18:01:34 18:02:32 11° 68° (ENE) 18:03:29 437.485
XW-2B 22 Jan 18:02:18 18:06:07 87° 250° (WSW) 18:09:57 145.730 - 145.750
STARS 22 Jan 18:03:40 18:07:39 33° 99° (E) 18:11:37 437.465
SRMSAT 22 Jan 18:09:37 18:12:52 15° 198° (SSW) 18:16:07 437.500
CUTE 1.7 + AOD 2 22 Jan 18:15:02 18:18:46 30° 73° (ENE) 18:22:28 437.475
CUTE-I 22 Jan 18:32:43 18:37:56 59° 259° (W) 18:43:11 437.470
PCSat 22 Jan 18:32:58 18:37:07 22° 57° (ENE) 18:41:14 145.827
XW-2C 22 Jan 18:33:16 18:36:39 30° 262° (W) 18:40:03 145.795 - 145.815
LilacSat-2 22 Jan 18:33:44 18:37:03 27° 262° (W) 18:40:23 437.200
CUBEBUG 2 22 Jan 18:47:15 18:51:23 45° 74° (ENE) 18:55:40 437.445
UWE-3 22 Jan 18:48:59 18:52:34 25° 71° (ENE) 18:56:15 435.000/436.395/437.385
STRAND 1 22 Jan 18:55:08 18:58:10 16° 95° (E) 19:01:10 437.568
XW-2A 22 Jan 18:59:53 19:01:50 15° 72° (ENE) 19:03:47 145.665 - 145.685
KAITUO 1B 22 Jan 19:03:08 19:05:46 18° 264° (W) 19:08:23 145.475/437.950
ZACube-1 22 Jan 19:08:23 19:11:41 21° 71° (ENE) 19:15:03 437.345
AAUSAT CUBESAT 2 22 Jan 19:09:30 19:13:05 29° 73° (ENE) 19:16:40 437.432
XW-2F 22 Jan 19:09:55 19:11:10 11° 266° (W) 19:12:26 145.980 - 146.000
NUDT-PHONESAT 22 Jan 19:10:44 19:12:59 15° 265° (W) 19:15:13 437.300
BEESAT 3 22 Jan 19:11:12 19:15:04 71° 244° (WSW) 19:18:50 437.485
AO-73 22 Jan 19:13:52 19:17:10 21° 71° (ENE) 19:20:31 145.935
nSIGHT-1 22 Jan 19:29:43 19:32:50 64° 315° (NW) 19:35:58 .
SEEDS 22 Jan 19:33:41 19:37:44 45° 261° (W) 19:41:47 437.485
RS-15 22 Jan 19:40:19 19:49:30 30° 256° (WSW) 19:58:25 29.354- 29.394
STARS 22 Jan 19:40:55 19:43:39 16° 291° (WNW) 19:46:24 437.465
HO-68 22 Jan 19:44:12 19:50:38 36° 261° (W) 19:57:06 435.675
Oscar 11 22 Jan 19:44:26 19:48:08 28° 73° (ENE) 19:51:51 .
ISS 22 Jan 19:51:14 19:54:26 58° 315° (NW) 19:57:39 437.550
CUTE 1.7 + AOD 2 22 Jan 19:51:54 19:54:33 16° 265° (W) 19:57:11 437.475
BEESAT 2 22 Jan 20:04:08 20:08:06 76° 244° (WSW) 20:11:59 435.950
PCSat 22 Jan 20:15:34 20:20:34 39° 251° (WSW) 20:25:33 145.827
UWE-3 22 Jan 20:25:33 20:28:53 21° 265° (W) 20:32:19 435.000/436.395/437.385
CUBEBUG 2 22 Jan 20:27:06 20:28:12 11° 268° (W) 20:29:19 437.445
FO-29 22 Jan 20:28:36 20:33:43 60° 101° (E) 20:39:06 435.910
XW-2A 22 Jan 20:31:43 20:34:17 20° 263° (W) 20:36:51 145.665 - 145.685
STRAND 1 22 Jan 20:32:34 20:37:26 45° 287° (WNW) 20:42:19 437.568
ZACube-1 22 Jan 20:44:03 20:47:44 26° 264° (W) 20:51:30 437.345
AAUSAT CUBESAT 2 22 Jan 20:46:06 20:48:30 15° 265° (W) 20:50:54 437.432
AO-73 22 Jan 20:49:28 20:53:10 26° 264° (W) 20:56:56 145.935
DELFI C3 22 Jan 21:01:15 21:04:49 35° 74° (ENE) 21:08:23 145.870
AO-85 22 Jan 21:05:01 21:10:04 60° 62° (ENE) 21:15:20 145.980
Max Valier Satellite 22 Jan 21:14:04 21:17:23 31° 75° (ENE) 21:20:44 145.860
Oscar 11 22 Jan 21:21:15 21:24:12 18° 265° (W) 21:27:10 .
TIGRISAT 22 Jan 21:22:54 21:26:10 19° 95° (E) 21:29:24 435.000
EO-88 22 Jan 21:27:50 21:31:01 29° 74° (ENE) 21:34:13 145.990 - 145.960
UNISAT 6 22 Jan 21:38:01 21:42:11 31° 97° (E) 21:46:18 437.425
